HISTORICAL SENSOR DATA

Sensor Data Report

DB LIVE
CURRENT TIME--:--:--
DEVICE NETWORK Gateway Status
13 ESP · realtime ~1s · history 60s
Weather WS-MOD-01
ONLINE
Actuator ACT-MOD-01
OFFLINE
Mainboard L3 MB-L3-01
ONLINE
Mainboard L5 MB-L5-01
ONLINE
Remote AC AC-REMOTE-01
OFFLINE
PZEM L3-01 PWR-L3-01
OFFLINE
PZEM L3-02 PWR-L3-02
OFFLINE
PZEM L3-03 PWR-L3-03
OFFLINE
PZEM L3-04 PWR-L3-04
OFFLINE
PZEM L5-01 PWR-L5-01
OFFLINE
PZEM L5-02 PWR-L5-02
OFFLINE
PZEM L5-03 PWR-L5-03
OFFLINE
PZEM L5-04 PWR-L5-04
OFFLINE
REPORT FILTER

Periode & Sensor

DATABASE HISTORY
RESET
QUICK RANGE Hari ini 7 hari 30 hari
PERIODE04 Aug 2026sampai 02 Sep 2026
TOTAL DATA40,278sensor readings
MINIMUM-0.50sesuai filter
AVERAGE56.78sesuai filter
MAXIMUM998.00sesuai filter
REPORT RESULT

Data Sensor

04/08/2026 — 02/09/2026 EXPORT CSV
NOTANGGALWAKTUDEVICECHANNELSENSORVALUEUNIT
11201 02/09/2026 14:55:06 MB-L5-01Mainboard Lantai 5 L5-SHT-01-RH SHT20 1 Humidity 48.50 %RH
11202 02/09/2026 14:55:06 MB-L5-01Mainboard Lantai 5 L5-BGT-03 Black Globe Temperature 3 29.70 °C
11203 02/09/2026 14:55:06 MB-L3-01Mainboard Lantai 3 L3-HFT-01 Heat Flow Temperature 1 29.70 °C
11204 02/09/2026 14:55:06 MB-L5-01Mainboard Lantai 5 L5-LUX-01 Illuminance / LUX 1 214.60 lux
11205 02/09/2026 14:55:06 MB-L5-01Mainboard Lantai 5 L5-LUX-03 Illuminance / LUX 3 153.10 lux
11206 02/09/2026 14:55:06 MB-L5-01Mainboard Lantai 5 L5-BGT-02 Black Globe Temperature 2 29.70 °C
11207 02/09/2026 14:55:06 MB-L3-01Mainboard Lantai 3 L3-LUX-02 Illuminance / LUX 2 27.30 lux
11208 02/09/2026 14:55:06 MB-L5-01Mainboard Lantai 5 L5-BGT-01 Black Globe Temperature 1 29.60 °C
11209 02/09/2026 14:55:06 MB-L3-01Mainboard Lantai 3 L3-AI-02 Analog Input 2 3.12 V
11210 02/09/2026 14:55:06 MB-L3-01Mainboard Lantai 3 L3-LUX-04 Illuminance / LUX 4 55.20 lux
11211 02/09/2026 14:55:06 MB-L5-01Mainboard Lantai 5 L5-HFT-02 Heat Flow Temperature 2 30.00 °C
11212 02/09/2026 14:55:06 MB-L3-01Mainboard Lantai 3 L3-HFT-02 Heat Flow Temperature 2 29.10 °C
11213 02/09/2026 14:55:06 MB-L3-01Mainboard Lantai 3 L3-SHT-01-T SHT20 1 Temperature 32.10 °C
11214 02/09/2026 14:55:06 MB-L5-01Mainboard Lantai 5 L5-HFT-01 Heat Flow Temperature 1 30.10 °C
11215 02/09/2026 14:55:06 MB-L5-01Mainboard Lantai 5 L5-LUX-06 Illuminance / LUX 6 222.90 lux
11216 02/09/2026 14:55:06 MB-L5-01Mainboard Lantai 5 L5-ST-02 Surface Temperature 2 30.40 °C
11217 02/09/2026 14:55:06 MB-L3-01Mainboard Lantai 3 L3-LUX-03 Illuminance / LUX 3 91.60 lux
11218 02/09/2026 14:55:06 MB-L3-01Mainboard Lantai 3 L3-SHT-01-RH SHT20 1 Humidity 48.50 %RH
11219 02/09/2026 14:55:06 MB-L3-01Mainboard Lantai 3 L3-AI-03 Analog Input 3 3.12 V
11220 02/09/2026 14:55:06 MB-L5-01Mainboard Lantai 5 L5-LUX-02 Illuminance / LUX 2 164.00 lux
11221 02/09/2026 14:55:06 MB-L5-01Mainboard Lantai 5 L5-ST-01 Surface Temperature 1 30.20 °C
11222 02/09/2026 14:55:06 MB-L5-01Mainboard Lantai 5 L5-SHT-01-T SHT20 1 Temperature 32.30 °C
11223 02/09/2026 14:55:06 MB-L3-01Mainboard Lantai 3 L3-SHT-03-RH SHT20 3 Humidity 49.40 %RH
11224 02/09/2026 14:55:04 MB-L5-01Mainboard Lantai 5 L5-SHT-02-T SHT20 2 Temperature 32.30 °C
11225 02/09/2026 14:55:04 MB-L5-01Mainboard Lantai 5 L5-SHT-03-RH SHT20 3 Humidity 49.10 %RH
11226 02/09/2026 14:55:04 MB-L5-01Mainboard Lantai 5 L5-AI-04 Analog Input 4 3.05 V
11227 02/09/2026 14:55:04 MB-L3-01Mainboard Lantai 3 L3-ST-01 Surface Temperature 1 30.00 °C
11228 02/09/2026 14:55:04 MB-L5-01Mainboard Lantai 5 L5-LUX-05 Illuminance / LUX 5 367.30 lux
11229 02/09/2026 14:55:04 MB-L3-01Mainboard Lantai 3 L3-AI-05 Analog Input 5 3.12 V
11230 02/09/2026 14:55:04 MB-L5-01Mainboard Lantai 5 L5-RAD-01 Radiation 1 1.00 W/m²
11231 02/09/2026 14:55:04 MB-L5-01Mainboard Lantai 5 L5-AI-03 Analog Input 3 3.05 V
11232 02/09/2026 14:55:04 MB-L3-01Mainboard Lantai 3 L3-SHT-02-T SHT20 2 Temperature 32.10 °C
11233 02/09/2026 14:55:04 MB-L5-01Mainboard Lantai 5 L5-AI-02 Analog Input 2 3.05 V
11234 02/09/2026 14:55:04 MB-L3-01Mainboard Lantai 3 L3-BGT-03 Black Globe Temperature 3 29.00 °C
11235 02/09/2026 14:55:04 MB-L3-01Mainboard Lantai 3 L3-LUX-05 Illuminance / LUX 5 29.60 lux
11236 02/09/2026 14:55:04 MB-L3-01Mainboard Lantai 3 L3-ST-02 Surface Temperature 2 30.10 °C
11237 02/09/2026 14:55:04 MB-L5-01Mainboard Lantai 5 L5-AI-01 Analog Input 1 3.05 V
11238 02/09/2026 14:55:04 MB-L3-01Mainboard Lantai 3 L3-AI-06 Analog Input 6 3.12 V
11239 02/09/2026 14:55:04 MB-L3-01Mainboard Lantai 3 L3-LUX-06 Illuminance / LUX 6 25.20 lux
11240 02/09/2026 14:55:04 MB-L3-01Mainboard Lantai 3 L3-AI-01 Analog Input 1 3.12 V
11241 02/09/2026 14:55:04 MB-L5-01Mainboard Lantai 5 L5-SHT-01-RH SHT20 1 Humidity 48.50 %RH
11242 02/09/2026 14:55:04 MB-L5-01Mainboard Lantai 5 L5-BGT-03 Black Globe Temperature 3 29.70 °C
11243 02/09/2026 14:55:04 MB-L3-01Mainboard Lantai 3 L3-HFT-01 Heat Flow Temperature 1 29.70 °C
11244 02/09/2026 14:55:04 MB-L5-01Mainboard Lantai 5 L5-LUX-01 Illuminance / LUX 1 221.30 lux
11245 02/09/2026 14:55:04 MB-L5-01Mainboard Lantai 5 L5-LUX-03 Illuminance / LUX 3 144.70 lux
11246 02/09/2026 14:55:04 MB-L5-01Mainboard Lantai 5 L5-BGT-02 Black Globe Temperature 2 29.60 °C
11247 02/09/2026 14:55:04 MB-L3-01Mainboard Lantai 3 L3-LUX-02 Illuminance / LUX 2 28.90 lux
11248 02/09/2026 14:55:04 MB-L5-01Mainboard Lantai 5 L5-BGT-01 Black Globe Temperature 1 29.70 °C
11249 02/09/2026 14:55:04 MB-L3-01Mainboard Lantai 3 L3-AI-02 Analog Input 2 3.12 V
11250 02/09/2026 14:55:04 MB-L3-01Mainboard Lantai 3 L3-LUX-04 Illuminance / LUX 4 45.40 lux
11251 02/09/2026 14:55:04 MB-L5-01Mainboard Lantai 5 L5-HFT-02 Heat Flow Temperature 2 29.90 °C
11252 02/09/2026 14:55:04 MB-L3-01Mainboard Lantai 3 L3-HFT-02 Heat Flow Temperature 2 29.20 °C
11253 02/09/2026 14:55:04 MB-L3-01Mainboard Lantai 3 L3-SHT-01-T SHT20 1 Temperature 32.20 °C
11254 02/09/2026 14:55:04 MB-L5-01Mainboard Lantai 5 L5-HFT-01 Heat Flow Temperature 1 30.00 °C
11255 02/09/2026 14:55:04 MB-L5-01Mainboard Lantai 5 L5-LUX-06 Illuminance / LUX 6 213.10 lux
11256 02/09/2026 14:55:04 MB-L5-01Mainboard Lantai 5 L5-ST-02 Surface Temperature 2 30.40 °C
11257 02/09/2026 14:55:04 MB-L3-01Mainboard Lantai 3 L3-LUX-03 Illuminance / LUX 3 87.00 lux
11258 02/09/2026 14:55:04 MB-L3-01Mainboard Lantai 3 L3-SHT-01-RH SHT20 1 Humidity 48.60 %RH
11259 02/09/2026 14:55:04 MB-L3-01Mainboard Lantai 3 L3-AI-03 Analog Input 3 3.12 V
11260 02/09/2026 14:55:04 MB-L5-01Mainboard Lantai 5 L5-LUX-02 Illuminance / LUX 2 162.10 lux
11261 02/09/2026 14:55:04 MB-L5-01Mainboard Lantai 5 L5-ST-01 Surface Temperature 1 30.00 °C
11262 02/09/2026 14:55:04 MB-L5-01Mainboard Lantai 5 L5-SHT-01-T SHT20 1 Temperature 32.40 °C
11263 02/09/2026 14:55:04 MB-L3-01Mainboard Lantai 3 L3-SHT-03-RH SHT20 3 Humidity 49.30 %RH
11264 02/09/2026 14:55:04 MB-L3-01Mainboard Lantai 3 L3-SHT-02-RH SHT20 2 Humidity 48.60 %RH
11265 02/09/2026 14:55:04 MB-L3-01Mainboard Lantai 3 L3-BGT-01 Black Globe Temperature 1 29.70 °C
11266 02/09/2026 14:55:04 MB-L5-01Mainboard Lantai 5 L5-RAD-02 Radiation 2 1.00 W/m²
11267 02/09/2026 14:55:04 MB-L3-01Mainboard Lantai 3 L3-LUX-01 Illuminance / LUX 1 16.00 lux
11268 02/09/2026 14:55:04 MB-L3-01Mainboard Lantai 3 L3-RAD-02 Radiation 2 1.00 W/m²
11269 02/09/2026 14:55:04 MB-L3-01Mainboard Lantai 3 L3-SHT-03-T SHT20 3 Temperature 31.80 °C
11270 02/09/2026 14:55:04 MB-L5-01Mainboard Lantai 5 L5-AI-06 Analog Input 6 3.05 V
11271 02/09/2026 14:55:04 MB-L5-01Mainboard Lantai 5 L5-SHT-02-RH SHT20 2 Humidity 48.40 %RH
11272 02/09/2026 14:55:04 MB-L3-01Mainboard Lantai 3 L3-AI-04 Analog Input 4 3.12 V
11273 02/09/2026 14:55:04 MB-L5-01Mainboard Lantai 5 L5-LUX-04 Illuminance / LUX 4 214.70 lux
11274 02/09/2026 14:55:04 MB-L3-01Mainboard Lantai 3 L3-BGT-02 Black Globe Temperature 2 29.70 °C
11275 02/09/2026 14:55:04 MB-L3-01Mainboard Lantai 3 L3-RAD-01 Radiation 1 1.00 W/m²
11276 02/09/2026 14:55:04 MB-L5-01Mainboard Lantai 5 L5-AI-05 Analog Input 5 3.05 V
11277 02/09/2026 14:55:04 MB-L5-01Mainboard Lantai 5 L5-SHT-03-T SHT20 3 Temperature 32.10 °C
11278 02/09/2026 14:55:03 MB-L3-01Mainboard Lantai 3 L3-ST-02 Surface Temperature 2 30.10 °C
11279 02/09/2026 14:55:03 MB-L3-01Mainboard Lantai 3 L3-AI-06 Analog Input 6 3.12 V
11280 02/09/2026 14:55:03 MB-L3-01Mainboard Lantai 3 L3-LUX-06 Illuminance / LUX 6 25.40 lux
11281 02/09/2026 14:55:03 MB-L3-01Mainboard Lantai 3 L3-AI-01 Analog Input 1 3.12 V
11282 02/09/2026 14:55:03 MB-L3-01Mainboard Lantai 3 L3-HFT-01 Heat Flow Temperature 1 29.70 °C
11283 02/09/2026 14:55:03 MB-L3-01Mainboard Lantai 3 L3-LUX-02 Illuminance / LUX 2 28.90 lux
11284 02/09/2026 14:55:03 MB-L3-01Mainboard Lantai 3 L3-AI-02 Analog Input 2 3.12 V
11285 02/09/2026 14:55:03 MB-L3-01Mainboard Lantai 3 L3-LUX-04 Illuminance / LUX 4 51.50 lux
11286 02/09/2026 14:55:03 MB-L3-01Mainboard Lantai 3 L3-HFT-02 Heat Flow Temperature 2 29.30 °C
11287 02/09/2026 14:55:03 MB-L3-01Mainboard Lantai 3 L3-SHT-01-T SHT20 1 Temperature 32.10 °C
11288 02/09/2026 14:55:03 MB-L3-01Mainboard Lantai 3 L3-LUX-03 Illuminance / LUX 3 87.00 lux
11289 02/09/2026 14:55:03 MB-L3-01Mainboard Lantai 3 L3-SHT-01-RH SHT20 1 Humidity 48.50 %RH
11290 02/09/2026 14:55:03 MB-L3-01Mainboard Lantai 3 L3-AI-03 Analog Input 3 3.12 V
11291 02/09/2026 14:55:03 MB-L3-01Mainboard Lantai 3 L3-SHT-03-RH SHT20 3 Humidity 49.20 %RH
11292 02/09/2026 14:55:03 MB-L3-01Mainboard Lantai 3 L3-SHT-02-RH SHT20 2 Humidity 48.60 %RH
11293 02/09/2026 14:55:03 MB-L3-01Mainboard Lantai 3 L3-BGT-01 Black Globe Temperature 1 29.80 °C
11294 02/09/2026 14:55:03 MB-L3-01Mainboard Lantai 3 L3-LUX-01 Illuminance / LUX 1 16.40 lux
11295 02/09/2026 14:55:03 MB-L3-01Mainboard Lantai 3 L3-RAD-02 Radiation 2 1.00 W/m²
11296 02/09/2026 14:55:03 MB-L3-01Mainboard Lantai 3 L3-SHT-03-T SHT20 3 Temperature 31.80 °C
11297 02/09/2026 14:55:03 MB-L3-01Mainboard Lantai 3 L3-AI-04 Analog Input 4 3.12 V
11298 02/09/2026 14:55:03 MB-L3-01Mainboard Lantai 3 L3-BGT-02 Black Globe Temperature 2 29.70 °C
11299 02/09/2026 14:55:03 MB-L3-01Mainboard Lantai 3 L3-RAD-01 Radiation 1 1.00 W/m²
11300 02/09/2026 14:55:03 MB-L3-01Mainboard Lantai 3 L3-ST-01 Surface Temperature 1 30.10 °C
Menampilkan maksimal 100 data per halaman